Погода Пильво

Погода Пильво : погода сейчас, прогноз погоды и архив. Всё, что Вы хотите узнать о погоде Пильво!

Хотите узнать прогноз погоды Пильво? Тогда Вам сюда: Погода Пильво

Поиск расширенной информации на нашем сайте:

Другие новости

Новости СМИ2

Главная страница сайта

Новости сайта

03.07.2017

Напоминаем, что на нашем специализированном сайте Метеоцентр.Азия вы можете получить высокодетализированные автоматические прогнозы погоды по пунктам России, СНГ и мира в авиационном формате (включающие направление и скорость ветра, видимость, явления погоды, количество и форму облачности, нижнюю и верхнюю границу облачности).


Погода Пильво - сегодня

Время (UTC), дата Ветер
(°,м/с) 
Видим.   Явления Облачность Т
(°С)
Тd
(°С)
f(%) Тe
(°С)
Pmin
(гПа)
dP
(гПа)
Po
(мм)
O2
(г/м3)
Тmin Tmax R s Состояние
почвы
15 08.10.18 010 (С) 2-3{05}  н/о    н/о 
+8.1 +7.4 95 +8  1009.7  -0.8  757  295           
18 08.10.18 360 (С) 3-5{05}  н/о    н/о 
+7.6 +7 96 +7  1009.5  -0.2  757  295           
21 08.10.18 130 (ЮВ) 3-4{05}  20000 м    9/9 600 м кучево-дожд. 
[Cb cap]
+7.2 +6.6 96 +6  1009.2  -0.3  756  296  +7.2      влажная 
12 09.10.18 360 (С) 4-6{16}  н/о    н/о 
+4.5 +3.5 93 +3  1010.6  0.3  758  300           
15 09.10.18 010 (С) 3-6{08}  н/о    н/о 
+4.8 +3.5 91 +4  1010.7  0.1  758  299           
18 09.10.18 010 (С) 8-10{10}  н/о    н/о 
+9.5 +4.2 69 +7  1010.7  758  294           
21 09.10.18 240 (ЮЗ) 8-10{16}  20000 м    9/9 600 м кучево-дожд. 
[Cb cap]
+9.7 +3.9 67 +8  1011.1  0.4  758  294  +4.1      влажная 
12 10.10.18 360 (С) 5-7{08}  н/о    н/о 
+1.8 +0.8 93 -1  1018  0.5  763  305           
15 10.10.18 360 (С) 5-8{08}  н/о    н/о 
+0.9 -0 94 -2  1018.1  0.1  763  306           
18 10.10.18 360 (С) 5-7{09}  н/о    н/о 
+0.5 -0.5 93 -2  1016.8  -1.3  762  307           
21 10.10.18 110 (В) 5-7{08}  20000 м    10/10 1000 м 
[Sc]
+1.5 +0.4 92 -1  1017.2  0.4  762  305  +0.4        влажная 
12 12.10.18 090 (В) 5-7{08}  н/о    н/о 
+1.6 -0.2 88 -1  1016.3  1.2  762  305           
15 12.10.18 110 (В) 6-8{08}  н/о    н/о 
-0.1 -1.3 92 -4  1016.8  0.4  762  307           
18 12.10.18 090 (В) 6-8{09}  н/о    н/о 
-0.1 -1.6 90 -4  1017  0.2  762  307           
21 12.10.18 120 (ЮВ) 5-8{09}  20000 м    ясно 
-0.1 -1.3 92 -3  1017.7  0.7  763  308  -0.4        замёрзшая 
00 13.10.18 110 (В) 2-4{09}  20000 м    ясно 
+8.1 +4 75 +8  1018.4  0.7  763  298           
06 13.10.18 210 (ЮЗ) 4-6{07}  20000 м    ясно 
+12.4 +5.6 63 +12  1018.2  -0.4  763  293           
12 13.10.18 110 (В) 6-8{08}  н/о    н/о 
+3.4 +1.1 85 +1  1018.4  763  304           
15 13.10.18 110 (В) 5-7{08}  н/о    н/о 
+2.8 +0.4 84 1018  -0.4  763  304           
18 13.10.18 110 (В) 5-7{07}  н/о    н/о 
+2.9 +0.9 87 1017.7  -0.4  763  304           
21 13.10.18 120 (ЮВ) 5-7{08}  20000 м    1/0 верхняя 
[Ci sp]
+2.5 +1.3 92 1017.1  -0.5  762  304  +2.4        влажная 
12 14.10.18 120 (ЮВ) 5-6{07}  н/о    н/о 
+6.6 +4.3 85 +5  1015.6  0.1  761  299           
15 14.10.18 120 (ЮВ) 6-7{08}  н/о    н/о 
+4.8 +3 88 +2  1015.4  -0.2  761  301           
18 14.10.18 120 (ЮВ) 6-8{09}  н/о    н/о 
+4.3 +2.5 88 +2  1015.2  -0.2  761  301           
21 14.10.18 120 (ЮВ) 6-7{08}  20000 м    10/0 средняя, верхняя 
[Ac trans|Ci sp]
+4.2 +2.8 91 +2  1015.1  0.1  761  302  +3.9        влажная 
Время (UTC), дата Ветер
(°,м/с) 
Видим.   Явления Облачность Т
(°С)
Тd
(°С)
f(%) Тe
(°С)
Pmin
(гПа)
dP
(гПа)
Po
(мм)
O2
(г/м3)
Тmin Tmax R s Состояние
почвы

Для получения пояснительной информации подведите курсор к названию столбца.

ПОГОДА Пильво - архив

Всё, что Вы хотите узнать о погоде Пильво - удобно и подробно!

Выберите нужную дату (начиная с 1 января 2015* года) и нажмите кнопку "Найти".
Будут отображены архивные сводки погоды по пункту Пильво, начиная с указанной даты.


Отображать данные в формате CSV (для использования в таблицах Excel)


Внимание! Наш архив погоды предназначен исключительно для личного некоммерческого использования в познавательных целях. Если Вам необходимы официальные справки о состоянии погоды (для производственных, юридических, коммерческих и т.п. целей), обращайтесь в органы Росгидромета.

*Примечание: данная дата относится к архиву по метеостанциям СССР (Россия, СНГ, Балтия).
Архив по метеостанциям Зарубежной Европы и Азии (кроме Китая) хранится 10 дней, по другим регионам земного шара (Китай, Африка, Америка, Австралия, Океания) - 1 день.

Пильво - район местоположения метеостанции


Название, широта, долгота, высота метеостанции:
Пильво 50.1°ш. 142.2°д. 4 м над ур. моря [Российская Федерация]

Дополнительная информация

В oтличие oт бoльшинства пoгoдных сайтoв мы публикуем пoдрoбную метеoинфoрмацию в детальнoм прoфессиoнальнoм фoрмате.

Характеристики температуры и влажнoсти вoздуха измеряются на высoте 2 м в тени вдали oт зданий и деревьев.
Скoрoсть ветра измеряется на высoте 10 м (на урoвне рoста челoвека скoрoсть ветра ниже в 1.5-2 раза). Если метеoстанция нахoдится в гoрoде или в лесу, тo скoрoсть ветра занижена на 2-4 м/с пo сравнению с oткрытым местoм. Скoрoсть ветра над акватoриями крупных рек и oзёр, а также на вершинах хoлмoв на 2-5 м/с выше, чем в oбычных услoвиях.
Атмoсфернoе давление в разных тoчках местнoсти мoжет значительнo oтличаться oт давления на метеoстанции, в зависимoсти oт услoвий рельефа (при пoдъёме на 10 м давление пoнижается примернo на 1 мм рт.ст.).